CDG7944 ZYTX-ZHCC

Flight info

Callsign CDG7944
Flight time N/A
Altitude 25600
Route TOSID A588 UDETI W106 MAKNO W5 HCH W4 TAMIX B208 NOPIN
Aircraft B738/M-SDE2E3FGHIRWXY/LB1

Departure

Time N/A
Airport Shenyang Taoxian International Airport (ZYTX)

Arrival

Time 2026-04-29 07:09
Airport Zhengzhou Xinzheng International Airport (ZHCC)
Time Latitude Longitude Altitude Speed Heading
2026-04-29 06:09 37.47208 118.33817 25708 ft 385 kts 261°
2026-04-29 06:09 37.46782 118.30463 25704 ft 385 kts 261°
2026-04-29 06:10 37.46360 118.27164 25701 ft 383 kts 261°
2026-04-29 06:10 37.45935 118.23834 25708 ft 385 kts 261°
2026-04-29 06:10 37.45511 118.20506 25703 ft 385 kts 261°
2026-04-29 06:10 37.45092 118.17191 25705 ft 385 kts 261°
2026-04-29 06:11 37.44677 118.13850 25705 ft 383 kts 261°
2026-04-29 06:11 37.44267 118.10556 25710 ft 383 kts 261°
2026-04-29 06:11 37.43854 118.07234 25709 ft 385 kts 261°
2026-04-29 06:11 37.43438 118.03909 25701 ft 384 kts 261°
2026-04-29 06:12 37.43021 118.00594 25706 ft 383 kts 261°
2026-04-29 06:12 37.42598 117.97241 25704 ft 385 kts 261°
2026-04-29 06:12 37.42180 117.93928 25709 ft 384 kts 261°
2026-04-29 06:12 37.41757 117.90591 25708 ft 386 kts 261°
2026-04-29 06:13 37.41338 117.87286 25701 ft 386 kts 261°
2026-04-29 06:13 37.40910 117.83931 25708 ft 384 kts 261°
2026-04-29 06:13 37.40487 117.80618 25705 ft 387 kts 261°
2026-04-29 06:13 37.40058 117.77271 25704 ft 385 kts 261°
2026-04-29 06:14 37.39628 117.73914 25708 ft 387 kts 261°
2026-04-29 06:14 37.39193 117.70527 25701 ft 385 kts 261°
2026-04-29 06:14 37.38763 117.67201 25705 ft 384 kts 261°
2026-04-29 06:14 37.38337 117.63902 25714 ft 385 kts 261°
2026-04-29 06:15 37.37900 117.60534 25708 ft 387 kts 261°
2026-04-29 06:15 37.37471 117.57231 25703 ft 387 kts 261°
2026-04-29 06:15 37.37034 117.53872 25706 ft 386 kts 261°
2026-04-29 06:15 37.36603 117.50573 25708 ft 387 kts 261°
2026-04-29 06:16 37.36161 117.47205 25707 ft 387 kts 261°
2026-04-29 06:16 37.35663 117.43910 25705 ft 387 kts 258°
2026-04-29 06:16 37.34949 117.40608 25708 ft 387 kts 253°
2026-04-29 06:16 37.34015 117.37466 25705 ft 387 kts 249°
2026-04-29 06:17 37.32941 117.34340 25712 ft 389 kts 247°
2026-04-29 06:17 37.31813 117.31234 25703 ft 389 kts 247°
2026-04-29 06:17 37.30689 117.28183 25714 ft 387 kts 247°
2026-04-29 06:17 37.29616 117.25270 25698 ft 390 kts 246°
2026-04-29 06:18 37.28492 117.22204 25703 ft 386 kts 247°
2026-04-29 06:18 37.27374 117.19139 25716 ft 385 kts 247°
2026-04-29 06:18 37.26259 117.16066 25705 ft 387 kts 247°
2026-04-29 06:18 37.25145 117.12989 25707 ft 386 kts 247°
2026-04-29 06:19 37.24021 117.09883 25711 ft 388 kts 247°
2026-04-29 06:19 37.22904 117.06793 25703 ft 388 kts 247°
2026-04-29 06:19 37.21787 117.03706 25707 ft 384 kts 247°
2026-04-29 06:19 37.20679 117.00654 25714 ft 385 kts 247°
2026-04-29 06:20 37.19550 116.97546 25710 ft 389 kts 247°
2026-04-29 06:20 37.18433 116.94473 25708 ft 389 kts 247°
2026-04-29 06:20 37.17300 116.91360 25702 ft 387 kts 247°
2026-04-29 06:20 37.16193 116.88327 25703 ft 384 kts 247°
2026-04-29 06:21 37.15081 116.85282 25712 ft 383 kts 247°
2026-04-29 06:21 37.13958 116.82207 25706 ft 384 kts 247°
2026-04-29 06:21 37.12859 116.79153 25717 ft 383 kts 248°
2026-04-29 06:21 37.11806 116.76098 25705 ft 386 kts 249°
2026-04-29 06:22 37.10749 116.72967 25707 ft 384 kts 249°
2026-04-29 06:22 37.09726 116.69916 25711 ft 381 kts 249°
2026-04-29 06:22 37.08704 116.66875 25712 ft 381 kts 249°
2026-04-29 06:22 37.07658 116.63770 25717 ft 384 kts 249°
2026-04-29 06:23 37.06614 116.60687 25709 ft 385 kts 248°
2026-04-29 06:23 37.05564 116.57595 25708 ft 383 kts 248°
2026-04-29 06:23 37.04531 116.54558 25709 ft 381 kts 248°
2026-04-29 06:23 37.03484 116.51489 25715 ft 381 kts 248°
2026-04-29 06:24 37.02434 116.48416 25709 ft 383 kts 248°
2026-04-29 06:24 37.01389 116.45359 25714 ft 382 kts 248°
2026-04-29 06:24 37.00343 116.42306 25711 ft 381 kts 248°
2026-04-29 06:24 36.99291 116.39236 25717 ft 380 kts 248°
2026-04-29 06:25 36.98246 116.36194 25714 ft 382 kts 248°
2026-04-29 06:25 36.97197 116.33144 25717 ft 382 kts 248°
2026-04-29 06:25 36.96142 116.30076 25722 ft 382 kts 248°
2026-04-29 06:25 36.95084 116.27002 25725 ft 383 kts 248°
2026-04-29 06:26 36.94036 116.23961 25720 ft 383 kts 248°
2026-04-29 06:26 36.92968 116.20866 25715 ft 382 kts 248°
2026-04-29 06:26 36.91917 116.17822 25715 ft 382 kts 248°
2026-04-29 06:26 36.90871 116.14796 25727 ft 381 kts 248°
2026-04-29 06:27 36.89810 116.11728 25726 ft 383 kts 248°
2026-04-29 06:27 36.88744 116.08652 25706 ft 382 kts 248°
2026-04-29 06:27 36.87688 116.05606 25719 ft 381 kts 247°
2026-04-29 06:27 36.86624 116.02541 25720 ft 382 kts 248°
2026-04-29 06:28 36.85572 115.99516 25717 ft 382 kts 248°
2026-04-29 06:28 36.84501 115.96437 25715 ft 383 kts 248°
2026-04-29 06:28 36.83442 115.93396 25718 ft 382 kts 248°
2026-04-29 06:28 36.82379 115.90346 25717 ft 383 kts 248°
2026-04-29 06:29 36.81304 115.87267 25724 ft 383 kts 248°
2026-04-29 06:29 36.80239 115.84219 25722 ft 384 kts 248°
2026-04-29 06:29 36.79164 115.81140 25721 ft 384 kts 248°
2026-04-29 06:29 36.78093 115.78080 25723 ft 384 kts 248°
2026-04-29 06:30 36.77026 115.75035 25721 ft 385 kts 248°
2026-04-29 06:30 36.74865 115.68885 25717 ft 386 kts 248°
2026-04-29 06:30 36.73772 115.65780 25720 ft 386 kts 248°
2026-04-29 06:31 36.72696 115.62728 25719 ft 385 kts 248°
2026-04-29 06:31 36.71622 115.59685 25725 ft 386 kts 248°
2026-04-29 06:31 36.70528 115.56587 25723 ft 386 kts 248°
2026-04-29 06:31 36.69446 115.53520 25719 ft 386 kts 248°
2026-04-29 06:32 36.68359 115.50448 25723 ft 385 kts 248°
2026-04-29 06:32 36.67287 115.47417 25721 ft 386 kts 248°
2026-04-29 06:32 36.66207 115.44370 25725 ft 384 kts 248°
2026-04-29 06:32 36.65121 115.41309 25726 ft 385 kts 248°
2026-04-29 06:33 36.64030 115.38234 25726 ft 387 kts 248°
2026-04-29 06:33 36.62953 115.35204 25723 ft 387 kts 248°
2026-04-29 06:33 36.61850 115.32106 25716 ft 388 kts 248°
2026-04-29 06:33 36.60768 115.29067 25726 ft 386 kts 248°
2026-04-29 06:34 36.59678 115.26005 25736 ft 387 kts 248°
2026-04-29 06:34 36.58586 115.22942 25726 ft 389 kts 248°
2026-04-29 06:34 36.57487 115.19878 25731 ft 389 kts 247°
2026-04-29 06:34 36.56288 115.16835 25717 ft 389 kts 243°
2026-04-29 06:35 36.54826 115.13971 25717 ft 389 kts 236°
2026-04-29 06:35 36.53096 115.11408 25734 ft 392 kts 230°
2026-04-29 06:35 36.51184 115.08974 25725 ft 394 kts 227°
2026-04-29 06:35 36.49193 115.06610 25722 ft 394 kts 226°
2026-04-29 06:36 36.47172 115.04273 25722 ft 395 kts 226°
2026-04-29 06:36 36.45134 115.01929 25718 ft 394 kts 226°
2026-04-29 06:36 36.43110 114.99595 25726 ft 393 kts 227°
2026-04-29 06:36 36.41117 114.97282 25727 ft 394 kts 227°
2026-04-29 06:37 36.39130 114.94935 25725 ft 393 kts 228°
2026-04-29 06:37 36.37244 114.92480 25727 ft 391 kts 232°
2026-04-29 06:37 36.35584 114.89864 25722 ft 388 kts 238°
2026-04-29 06:37 36.34094 114.87092 25719 ft 387 kts 240°
2026-04-29 06:38 36.32689 114.84227 25726 ft 384 kts 242°
2026-04-29 06:38 36.31345 114.81368 25725 ft 386 kts 243°
2026-04-29 06:38 36.30024 114.78519 25722 ft 386 kts 243°
2026-04-29 06:38 36.28674 114.75611 25721 ft 385 kts 243°
2026-04-29 06:39 36.27346 114.72773 25728 ft 384 kts 243°
2026-04-29 06:39 36.25979 114.69911 25725 ft 385 kts 242°
2026-04-29 06:39 36.24592 114.67057 25724 ft 384 kts 242°
2026-04-29 06:39 36.23224 114.64262 25716 ft 382 kts 242°
2026-04-29 06:40 36.21836 114.61434 25727 ft 381 kts 242°
2026-04-29 06:40 36.20459 114.58631 25727 ft 383 kts 242°
2026-04-29 06:40 36.19088 114.55843 25728 ft 382 kts 242°
2026-04-29 06:40 36.17690 114.53005 25722 ft 384 kts 242°
2026-04-29 06:41 36.16309 114.50202 25719 ft 383 kts 242°
2026-04-29 06:41 36.14917 114.47378 25723 ft 381 kts 242°
2026-04-29 06:41 36.13527 114.44550 25717 ft 382 kts 242°
2026-04-29 06:41 36.12156 114.41762 25721 ft 379 kts 242°
2026-04-29 06:42 36.10766 114.38940 25736 ft 381 kts 242°
2026-04-29 06:42 36.09364 114.36095 25721 ft 382 kts 242°
2026-04-29 06:42 36.07970 114.33278 25720 ft 382 kts 241°
2026-04-29 06:42 36.06594 114.30502 25729 ft 380 kts 241°
2026-04-29 06:43 36.05206 114.27691 25735 ft 378 kts 242°
2026-04-29 06:43 36.03841 114.24922 25732 ft 378 kts 242°
2026-04-29 06:43 36.02477 114.22156 25734 ft 377 kts 242°
2026-04-29 06:43 36.01096 114.19363 25728 ft 380 kts 241°
2026-04-29 06:44 35.99712 114.16576 25733 ft 381 kts 242°
2026-04-29 06:44 35.98334 114.13796 25729 ft 379 kts 242°
2026-04-29 06:44 35.96961 114.11032 25729 ft 378 kts 242°
2026-04-29 06:44 35.95577 114.08250 25733 ft 378 kts 242°
2026-04-29 06:45 35.94203 114.05484 25736 ft 378 kts 242°
2026-04-29 06:45 35.92810 114.02683 25643 ft 381 kts 242°
2026-04-29 06:45 35.91423 113.99911 25402 ft 380 kts 242°
2026-04-29 06:45 35.90049 113.97169 25164 ft 377 kts 242°
2026-04-29 06:46 35.88663 113.94398 24939 ft 375 kts 242°
2026-04-29 06:46 35.87296 113.91660 24702 ft 376 kts 242°
2026-04-29 06:46 35.85917 113.88901 24441 ft 376 kts 242°
2026-04-29 06:46 35.84552 113.86179 24217 ft 374 kts 242°
2026-04-29 06:47 35.83187 113.83459 23955 ft 372 kts 243°
2026-04-29 06:47 35.81839 113.80760 23686 ft 372 kts 243°
2026-04-29 06:47 35.80476 113.78037 23450 ft 372 kts 243°
2026-04-29 06:47 35.79109 113.75318 23179 ft 373 kts 242°
2026-04-29 06:48 35.77734 113.72587 22926 ft 373 kts 242°
2026-04-29 06:48 35.76372 113.69880 22660 ft 373 kts 242°
2026-04-29 06:48 35.75007 113.67158 22414 ft 374 kts 242°
2026-04-29 06:48 35.73649 113.64453 22168 ft 373 kts 242°
2026-04-29 06:49 35.72289 113.61755 21913 ft 373 kts 242°
2026-04-29 06:49 35.70905 113.59019 21639 ft 373 kts 242°
2026-04-29 06:49 35.69541 113.56319 21399 ft 373 kts 242°
2026-04-29 06:49 35.68164 113.53584 21142 ft 374 kts 242°
2026-04-29 06:50 35.66735 113.50942 20890 ft 375 kts 238°
2026-04-29 06:50 35.64975 113.48518 20628 ft 381 kts 226°
2026-04-29 06:50 35.62826 113.46614 20379 ft 387 kts 215°
2026-04-29 06:50 35.60336 113.45204 20122 ft 392 kts 205°
2026-04-29 06:51 35.57707 113.44247 19854 ft 395 kts 198°
2026-04-29 06:51 35.54998 113.43776 19604 ft 400 kts 186°
2026-04-29 06:51 35.52180 113.44029 19346 ft 405 kts 173°
2026-04-29 06:51 35.49463 113.44900 19100 ft 408 kts 166°
2026-04-29 06:52 35.46749 113.46015 18831 ft 407 kts 164°
2026-04-29 06:52 35.44107 113.47193 18565 ft 406 kts 163°
2026-04-29 06:52 35.41463 113.48411 18302 ft 405 kts 162°
2026-04-29 06:52 35.38820 113.49638 18038 ft 403 kts 162°
2026-04-29 06:53 35.36234 113.50833 17723 ft 396 kts 162°
2026-04-29 06:53 35.33645 113.52019 17274 ft 391 kts 162°
2026-04-29 06:53 35.31134 113.53158 16748 ft 388 kts 162°
2026-04-29 06:53 35.28583 113.54309 16199 ft 386 kts 162°
2026-04-29 06:54 35.26076 113.55435 15656 ft 383 kts 162°
2026-04-29 06:54 35.23566 113.56559 15115 ft 381 kts 162°
2026-04-29 06:54 35.21088 113.57664 14570 ft 379 kts 161°
2026-04-29 06:54 35.18617 113.58766 14027 ft 377 kts 161°
2026-04-29 06:55 35.16157 113.59864 13483 ft 375 kts 160°
2026-04-29 06:55 35.13712 113.60956 12948 ft 373 kts 160°
2026-04-29 06:55 35.11275 113.62043 12559 ft 366 kts 160°
2026-04-29 06:55 35.08921 113.63094 12389 ft 354 kts 160°
2026-04-29 06:56 35.06631 113.64104 12260 ft 341 kts 161°
2026-04-29 06:56 35.04435 113.65061 11923 ft 336 kts 161°
2026-04-29 06:56 35.02228 113.66018 11481 ft 327 kts 161°
2026-04-29 06:56 35.00131 113.66927 11155 ft 313 kts 161°
2026-04-29 06:57 34.98139 113.67792 11100 ft 291 kts 161°
2026-04-29 06:57 34.96265 113.68605 10894 ft 284 kts 160°
2026-04-29 06:57 34.94401 113.69415 10565 ft 283 kts 161°
2026-04-29 06:57 34.92528 113.70227 10228 ft 283 kts 160°
2026-04-29 06:58 34.90673 113.71031 9892 ft 282 kts 160°
2026-04-29 06:58 34.88808 113.71779 9556 ft 281 kts 166°
2026-04-29 06:58 34.86886 113.72012 9225 ft 278 kts 189°
2026-04-29 06:58 34.85094 113.71199 8912 ft 272 kts 217°
2026-04-29 06:59 34.83740 113.69627 8600 ft 267 kts 231°
2026-04-29 06:59 34.82521 113.67933 8261 ft 267 kts 230°
2026-04-29 06:59 34.81267 113.66279 7941 ft 266 kts 229°
2026-04-29 06:59 34.79990 113.64627 7612 ft 265 kts 228°
2026-04-29 07:00 34.78730 113.62987 7284 ft 265 kts 228°
2026-04-29 07:00 34.77496 113.61370 6978 ft 263 kts 228°
2026-04-29 07:00 34.76265 113.59751 6832 ft 255 kts 228°
2026-04-29 07:00 34.75082 113.58193 6762 ft 244 kts 228°
2026-04-29 07:01 34.73951 113.56705 6695 ft 234 kts 228°
2026-04-29 07:01 34.72837 113.55302 6629 ft 232 kts 222°
2026-04-29 07:01 34.71469 113.54222 6382 ft 232 kts 202°
2026-04-29 07:01 34.69966 113.53548 6117 ft 230 kts 198°
2026-04-29 07:02 34.68454 113.52908 5875 ft 226 kts 199°
2026-04-29 07:02 34.66989 113.52235 5638 ft 225 kts 201°
2026-04-29 07:02 34.65486 113.51669 5389 ft 223 kts 188°
2026-04-29 07:02 34.63979 113.51812 5148 ft 216 kts 158°
2026-04-29 07:03 34.62810 113.52853 4924 ft 208 kts 125°
2026-04-29 07:03 34.62110 113.54366 4735 ft 201 kts 114°
2026-04-29 07:03 34.61555 113.55896 4548 ft 199 kts 112°
2026-04-29 07:03 34.61008 113.57454 4351 ft 197 kts 111°
2026-04-29 07:04 34.60495 113.58952 4153 ft 191 kts 111°
2026-04-29 07:04 34.59991 113.60442 3954 ft 187 kts 111°
2026-04-29 07:04 34.59502 113.61893 3760 ft 187 kts 111°
2026-04-29 07:04 34.59005 113.63356 3565 ft 187 kts 111°
2026-04-29 07:05 34.58514 113.64802 3370 ft 186 kts 111°
2026-04-29 07:05 34.58020 113.66254 3186 ft 183 kts 111°
2026-04-29 07:05 34.57552 113.67632 3088 ft 174 kts 111°
2026-04-29 07:05 34.57087 113.69003 2813 ft 173 kts 111°
2026-04-29 07:06 34.56646 113.70303 2628 ft 158 kts 111°
2026-04-29 07:06 34.56226 113.71538 2366 ft 157 kts 111°
2026-04-29 07:06 34.55821 113.72729 2181 ft 153 kts 111°
2026-04-29 07:06 34.55409 113.73939 1967 ft 155 kts 110°
2026-04-29 07:07 34.54996 113.75160 1772 ft 158 kts 110°
2026-04-29 07:07 34.54575 113.76389 1543 ft 156 kts 110°
2026-04-29 07:07 34.54164 113.77595 1354 ft 156 kts 110°
2026-04-29 07:07 34.53751 113.78813 1157 ft 153 kts 112°
2026-04-29 07:08 34.53345 113.79993 955 ft 152 kts 111°
2026-04-29 07:08 34.52929 113.81175 729 ft 152 kts 110°
2026-04-29 07:08 34.52519 113.82382 534 ft 152 kts 109°
2026-04-29 07:08 34.52147 113.83482 497 ft 118 kts 112°
2026-04-29 07:09 34.51934 113.84119 497 ft 48 kts 112°
2026-04-29 07:09 34.51834 113.84412 497 ft 30 kts 112°
2026-04-29 07:09 34.51790 113.84572 497 ft 18 kts 101°
2026-04-29 07:09 34.51777 113.84721 497 ft 17 kts 87°
2026-04-29 07:10 34.51789 113.84850 497 ft 9 kts 82°
2026-04-29 07:10 34.51817 113.84920 497 ft 9 kts 33°
2026-04-29 07:10 34.51876 113.84949 496 ft 9 kts 22°
2026-04-29 07:10 34.51956 113.84988 494 ft 14 kts 22°
2026-04-29 07:11 34.52067 113.85044 493 ft 19 kts 22°
2026-04-29 07:11 34.52203 113.85111 493 ft 22 kts 22°
2026-04-29 07:11 34.52361 113.85190 490 ft 24 kts 22°
2026-04-29 07:11 34.52519 113.85269 488 ft 24 kts 22°
2026-04-29 07:12 34.52678 113.85348 487 ft 24 kts 22°
2026-04-29 07:12 34.52834 113.85426 485 ft 24 kts 22°
2026-04-29 07:12 34.52920 113.85469 484 ft 7 kts 22°
2026-04-29 07:12 34.52958 113.85460 484 ft 5 kts 307°
2026-04-29 07:13 34.52969 113.85427 485 ft 2 kts 291°
2026-04-29 07:13 34.52973 113.85414 485 ft 0 kts 292°
2026-04-29 07:13 34.52977 113.85401 486 ft 2 kts 292°
2026-04-29 07:13 34.52980 113.85394 486 ft 0 kts 292°